Regional Weather Roundup
Issued by NWS Upton, NY

Current Version | Previous Version | Text Only | Print | Product List | Glossary Off
Versions: 1 2 3 4 5 6 7 8 9 10 11 12 13 14 15 16 17 18 19 20 21 22 23 24 25 26 27 28 29 30 31 32 33 34 35 36 37 38 39 40 41 42 43 44 45 46 47 48 49 50

000
ASUS41 KOKX 311604
RWROKX

REGIONAL WEATHER ROUNDUP
NATIONAL WEATHER SERVICE NEW YORK NY
1200 PM EDT TUE MAY 31 2016

NOTE: "FAIR" INDICATES FEW OR NO CLOUDS BELOW 12,000 FEET WITH NO
SIGNIFICANT WEATHER AND/OR OBSTRUCTIONS TO VISIBILITY.

NYZ071-072-176-178-NJZ106-104-311700-
NEW YORK CITY METRO AREA


CITY           SKY/WX    TMP DP  RH WIND       PRES   REMARKS
CENTRAL PARK   SUNNY     81  61  50 S5        29.99F
LAGUARDIA APRT MOSUNNY   80  62  54 E9        29.96F
KENNEDY INTL   PTSUNNY   76  67  73 SE6       29.98F
NEWARK/LIBERTY PTSUNNY   81  58  45 VRB7      29.96F
BRNX BOT. GARD   N/A     79  61  53 SE10      29.97F
TETERBORO      PTSUNNY   82  58  43 VRB7      29.95F
$$

NYZ177-179-078>081-311700-
LONG ISLAND NEW YORK

CITY           SKY/WX    TMP DP  RH WIND       PRES   REMARKS
FARMINGDALE    PTSUNNY   77  67  71 SE5       29.97F
ISLIP          CLOUDY    76  67  73 S10       29.97F
SHIRLEY        CLOUDY    73  67  81 S9        29.98F
RIVERHEAD        N/A     79  64  61 NE2       29.97S
WESTHAMPTON    MOSUNNY   72  66  81 SW8       29.99F
EAST HAMPTON   CLOUDY    71  66  84 S3        29.98F
MONTAUK POINT    N/A     71  66  84 VRB5      29.98F
$$

NYZ052-065-067-311700-
HUDSON VALLEY

CITY           SKY/WX    TMP DP  RH WIND       PRES   REMARKS
WHITE PLAINS   MOSUNNY   79  54  41 CALM      29.97F
NEWBURGH       MOSUNNY   79  57  47 CALM      29.98F
MONTGOMERY     SUNNY     80  56  43 E5        29.96F
POUGHKEEPSIE   SUNNY     81  54  39 NE5       29.95F
ALBANY         MOSUNNY   78  52  40 W15       29.95F
$$

NJZ001-105-106-008-010-013-015-019>022-104-311700-
NEW JERSEY

CITY           SKY/WX    TMP DP  RH WIND       PRES   REMARKS
NEWARK/LIBERTY PTSUNNY   81  58  45 VRB7      29.96F
TETERBORO      PTSUNNY   82  58  43 VRB7      29.95F
CALDWELL       MOSUNNY   80  60  50 SE5       29.97F
MORRISTOWN     PTSUNNY   81  57  44 E7        29.97F
SOMERVILLE     MOSUNNY   83  58  42 N8        29.95F
SUSSEX         SUNNY     80  56  43 VRB5      29.97F
ANDOVER          N/A     80  56  43 VRB5      29.99F
TRENTON        SUNNY     82  63  52 NE10G17   29.96S
MILLVILLE      PTSUNNY   80  67  64 NW5       29.97S
ATLANTIC CITY  PTSUNNY   79  68  69 VRB6      29.97S
WRIGHTSTOWN    MOSUNNY   79  67  67 NE8       29.94F
TOMS RIVER     PTSUNNY   79  63  57 N8        29.97S
BELMAR         CLOUDY    76  66  71 VRB5      29.98F
$$

PAZ047>061-062-071-311700-
EASTERN PENNSYLVANIA

CITY           SKY/WX    TMP DP  RH WIND       PRES   REMARKS
PHILADELPHIA   MOSUNNY   84  57  39 NE8       29.96F
ALLENTOWN      SUNNY     82  55  39 VRB5      29.99S
SCRANTON       SUNNY     79  56  45 NW7       30.00F
$$

CTZ002-004>006-009-010-012-RIZ004-006-007-MAZ004-011-015-311700-
SOUTHERN NEW ENGLAND
 IN CT

CITY           SKY/WX    TMP DP  RH WIND       PRES   REMARKS
BRADLEY INTL   MOSUNNY   81  53  37 NW9       29.93F
HARTFORD       MOSUNNY   82  53  36 VRB3      29.94F
DANBURY        SUNNY     79  52  38 MISG      29.98F
WTRBRY/OXFORD  MOSUNNY   77  54  44 CALM      29.99F
BRIDGEPORT     PTSUNNY   76  64  66 S10       29.96S
MERIDEN        MOSUNNY   81  52  36 VRB5      29.95F
NEW HAVEN      PTSUNNY   73  66  78 S7        29.96S
CHESTER        PTSUNNY   77  55  47 W6        29.97F
GROTON         CLOUDY    70  68  93 SW7       29.96F FOG
WILLIMANTIC    CLOUDY    81  51  35 VRB6      29.95F

 IN RI

CITY           SKY/WX    TMP DP  RH WIND       PRES   REMARKS
PROVIDENCE     PTSUNNY   81  56  42 W6        29.94F
BLOCK ISLAND   CLOUDY    67  63  87 SW16      29.98S
WESTERLY       CLOUDY    70  65  84 S9        29.98S

 IN MA

CITY           SKY/WX    TMP DP  RH WIND       PRES   REMARKS
BOSTON         MOSUNNY   82  52  35 W10G17    29.89F
WORCESTER      CLOUDY    75  47  36 W9G20     29.95F
WESTFIELD      SUNNY     81  49  32 W12G18    29.94F
PROVINCETOWN   CLOUDY    68  64  87 SW15      29.93F
NANTUCKET      CLOUDY    63  61  93 SW10      29.99R
$$

ANZ330-335-338-340-345-350-353-355-311700-
COASTAL MARINE OBSERVATIONS


STATION/POSITION TIME  SKY/WX   TEMP    WIND        PRES    VSBY  WAVE
                                AIR SEA DIR/SP/G                  HT/PER
                 (UTC)          (F)     (DEG/KT/KT) (MB)    (MI)  (FT/S)
NY HARB ENTRANCE 1450            61 59  180/  4/  4 1014.9          3/ 7
20S FIRE ISLAND  1450            62 61  180/  6/  6 1015.0          4/ 7
GREAT SOUTH BAY  1500            65 71  230/  4/  8   N/A
23 SSW MONTAUK P 1550            61 58  240/  6/  8 1015.0          4/ 7
15 E BARNEGAT LI 1522               62                N/A           4/ 8
HUDSON CANYON    1450            62 60              1015.3          4/ 7
KINGS POINT      1500            73 62              1014.9
EXECUTION ROCKS  NOT AVBL
CENTRAL LI SOUND 1515            67     200/  6/  6   N/A           0
EASTERN LI SOUND 1500            60 56  210/  6/  8   N/A
ROBBINS REEF     1506            76      50/  4/ 10 1014.2
$$


>>>>>>>>>>>>>>>>>>>>>>>>>>>> KEY <<<<<<<<<<<<<<<<<<<<<<<<<<<
>                                                          <
>     SKY/WX - SKY CONDITION/PRESENT WEATHER               <
>     TMP    - TEMPERATURE IN FAHRENHEIT                   <
>     DP     - DEWPOINT IN FAHRENHEIT                      <
>     RH     - RELATIVE HUMIDITY IN PERCENT                <
>     WIND   - DIRECTION AND SPEED IN MPH                  <
>     PRES   - MEAN SEA LEVEL PRESSURE IN INCHES OF HG     <
>     WCI    - WIND CHILL INDEX                            <
>     VSB    - VISIBILITY IN MILES                         <
>     HX     - HEAT INDEX                                  <
>     TC     - TEMPERATURE IN CELSIUS                      <
>     VRB    - VARIABLE WIND DIRECTION                     <
>                                                          <
>>>>>>>>>>>>>>>>>>>>>>>>>>>> KEY <<<<<<<<<<<<<<<<<<<<<<<<<<<





USA.gov is the U.S. government's official web portal to all federal, state and local government web resources and services.